User: anonymous   Login
Location: Azul
(36.7830°S, 59.8500°W)
Time: 10:08:55
(UTC-03:00)
Language:

CUTE-I - Orbit

View from above orbital plane
View from above orbital plane
View from above satellite
View from above satellite

Ground track
Ground track

The orbit data is extracted from the following two-line orbital elements,

1 27844U 03031E   21294.96036281  .00000085  00000-0  57978-4 0  9998
2 27844  98.6819 301.2627 0010939  74.5423 285.6962 14.22341814949961
Epoch (UTC): 21 October 2021 23:02:55
Eccentricity: 0.0010939
inclination: 98.6819°
perigee height: 809 km
apogee height: 825 km
right ascension of ascending node: 301.2627°
argument of perigee: 74.5423°
revolutions per day: 14.22341814
mean anomaly at epoch: 285.6962°
orbit number at epoch: 94996

The dashed part of the orbit path shows where the satellite is in the earth's shadow,  

DLR